Theta_e
294 293 294 295 296 297 297 297 298 297 297 297 298 298 299 299 299 299 299 300 300 299 299 299 299 299 297 297 297 299 299 298 298 298 299 298 298 297 297 298 298 298 299 300 300 300 300 301 301 300 300 301 302 304 305 305 304 304 303 302 302 302 301 300 299 298 298 299 299 300 302 303 304 304 302 300 299 298 298 299 300 300 299 298 297 297 297 297 297 296 297 297 297 298 298 296 294 295 296 296 294 293 292
294 294 295 295 296 296 297 298 298 298 297 297 297 297 298 299 299 299 299 299 299 298 299 299 300 299 297 296 297 299 299 298 298 299 298 298 298 298 297 297 297 297 298 298 298 298 299 300 300 299 300 300 300 302 305 304 303 303 304 303 303 303 301 300 299 298 298 299 300 300 302 303 304 303 302 300 299 299 298 299 300 300 300 299 298 297 296 296 296 296 297 296 296 297 300 298 296 295 295 294 294 293 292
295 295 296 296 296 296 297 298 298 299 298 298 298 297 297 298 299 299 298 298 298 297 299 300 300 299 297 296 297 299 299 299 299 299 298 298 298 298 298 298 297 297 298 298 298 297 299 300 300 300 300 300 300 302 302 302 302 303 303 304 304 303 302 301 301 301 299 299 300 301 301 301 302 302 302 300 300 300 298 299 300 299 299 299 298 296 296 297 298 298 296 295 295 296 298 298 297 295 295 294 293 292 292
296 296 296 296 297 297 298 298 299 301 300 299 298 297 297 298 299 298 298 297 297 297 299 300 300 298 297 297 297 298 298 298 298 298 298 298 298 298 299 299 298 298 298 298 299 299 300 300 301 303 302 302 301 301 301 301 301 302 304 304 304 303 303 302 302 301 300 300 300 301 301 301 301 301 301 301 300 300 299 299 300 299 301 299 298 297 297 298 298 296 295 295 295 297 297 296 296 296 294 293 293 293 293
296 296 296 296 297 297 298 298 299 299 300 299 298 297 297 297 297 296 296 296 297 297 298 299 299 297 298 298 298 298 298 298 299 299 298 298 298 298 298 299 300 299 299 300 301 299 299 300 302 303 302 301 301 301 300 301 301 301 303 304 304 304 303 303 303 302 301 300 300 301 301 301 301 300 301 301 301 300 299 299 300 302 301 299 296 296 296 296 297 296 295 295 295 295 296 296 295 295 294 294 293 293 293
295 295 295 296 296 297 297 298 298 298 298 297 297 296 296 296 295 296 296 296 296 297 297 297 297 297 297 297 298 298 298 299 301 299 299 299 298 298 297 298 299 299 299 299 300 299 297 297 297 298 298 297 297 297 298 298 299 299 301 302 303 303 303 304 304 302 301 300 300 302 301 301 300 300 301 301 301 300 299 299 299 301 300 299 297 296 296 296 296 296 296 296 295 295 295 295 294 293 293 293 293 293 293
295 295 295 296 296 296 297 297 297 297 296 297 297 297 296 295 295 296 296 296 296 297 297 297 297 297 297 297 298 298 298 300 302 302 300 299 299 299 297 297 297 297 297 297 298 299 298 296 295 295 295 295 295 295 296 297 298 299 299 300 302 303 303 303 304 303 302 301 301 301 301 301 300 299 300 300 300 300 300 299 298 299 300 300 299 297 297 296 296 296 296 296 296 296 296 294 293 293 291 290 290 292 293
294 295 296 296 296 296 297 297 296 294 295 296 297 297 296 296 296 296 296 297 297 297 297 296 296 296 297 297 297 298 298 300 302 301 299 299 299 299 297 296 295 295 295 294 294 294 295 296 296 296 297 297 296 296 296 297 298 298 298 299 300 301 302 303 303 303 302 302 301 301 301 300 300 300 300 300 300 300 299 299 299 299 299 299 299 298 297 297 297 296 296 296 295 295 295 294 293 294 291 291 290 290 292
295 295 296 296 296 296 296 296 296 294 295 296 297 297 297 297 297 297 297 298 298 298 297 296 296 296 296 297 297 297 298 298 299 300 299 299 299 298 298 298 297 297 297 297 297 296 296 297 297 298 298 298 298 298 298 298 299 299 300 300 300 300 301 302 303 303 303 302 301 301 301 300 300 301 300 299 299 299 298 298 299 299 299 299 299 299 298 297 296 295 295 295 295 296 295 293 292 293 292 291 290 290 290
294 294 295 296 296 295 295 296 296 295 296 296 297 297 298 298 297 297 297 297 297 297 296 296 296 296 296 296 296 297 297 297 298 298 299 299 300 299 299 299 299 298 298 298 298 298 298 298 298 298 299 299 299 299 299 299 300 301 301 300 300 299 300 301 302 303 303 303 302 301 301 301 300 300 300 299 298 298 298 298 298 298 299 300 299 299 298 296 294 294 294 294 295 295 295 294 292 291 292 292 291 289 290
292 293 294 294 295 295 295 295 295 296 296 297 297 298 298 297 296 296 296 296 296 297 296 296 296 296 296 296 296 296 297 297 296 297 298 299 299 299 299 298 298 299 298 298 298 298 298 298 299 299 300 300 300 300 301 301 301 301 301 301 300 299 299 300 301 302 302 303 302 302 301 301 301 300 299 298 298 298 298 298 298 299 300 300 299 298 297 296 295 295 294 294 295 294 294 294 293 291 291 291 291 289 289
292 294 294 294 295 296 295 296 296 296 296 297 298 297 296 296 295 295 296 296 296 296 296 296 296 296 296 297 296 297 296 296 296 296 298 299 298 299 298 298 298 299 299 298 298 298 298 299 300 300 299 299 300 301 301 301 301 300 301 301 301 300 299 299 300 301 302 302 303 302 302 301 301 300 300 299 298 298 298 298 299 299 300 300 299 298 297 296 296 296 295 295 295 294 294 294 294 294 292 292 291 290 289
292 294 294 294 294 296 296 296 296 296 296 298 298 297 295 295 295 295 295 296 296 297 296 296 296 296 298 298 298 297 297 296 295 295 297 298 298 299 298 298 298 298 298 298 298 299 299 300 300 299 299 299 299 300 301 300 300 300 301 301 301 301 300 299 299 301 301 302 302 303 302 301 301 301 299 299 298 298 298 298 298 299 300 300 299 299 298 297 296 296 295 296 296 294 293 293 294 295 292 291 291 290 289
292 294 294 294 294 295 296 297 297 296 296 297 297 295 295 295 295 295 295 296 297 297 297 297 297 297 298 299 299 298 297 297 296 295 297 299 299 299 298 297 297 297 299 299 299 299 299 300 300 300 300 300 300 299 300 300 299 300 300 300 301 301 300 300 299 300 301 301 302 302 302 302 302 302 300 299 299 299 298 298 298 299 300 301 300 299 298 297 296 295 295 295 294 293 292 292 293 294 292 291 291 291 289
293 293 294 294 294 294 295 295 295 295 296 296 295 295 295 295 296 296 296 296 296 297 297 297 296 296 297 298 299 298 298 298 297 296 296 297 299 299 298 297 298 297 298 299 300 299 300 300 301 301 301 301 300 298 299 298 298 299 299 300 300 301 300 300 299 299 300 301 301 302 302 302 303 303 302 300 299 299 299 298 298 299 301 300 299 298 297 296 295 294 294 293 292 292 291 292 292 292 292 292 292 291 290
292 292 293 293 293 293 293 293 293 294 294 295 295 295 295 295 296 296 296 296 296 296 296 296 296 296 296 297 297 298 297 297 297 296 295 296 298 299 297 297 297 297 297 298 299 300 301 300 300 300 299 299 299 298 298 298 297 298 298 299 299 300 300 300 300 299 299 300 300 301 302 302 303 303 303 302 300 299 299 299 299 300 301 299 297 296 294 294 293 293 293 292 291 291 291 290 290 291 292 293 293 291 289
291 291 291 291 292 292 292 292 292 293 294 294 294 294 295 295 295 295 295 295 295 295 295 296 297 296 297 297 297 297 296 296 296 295 295 295 295 296 296 295 295 295 295 296 297 298 299 299 298 298 298 297 297 298 298 297 297 297 298 298 299 299 300 300 300 300 300 299 300 300 301 302 302 303 303 302 301 300 299 299 299 301 300 298 296 294 294 293 292 292 292 292 291 291 290 290 290 290 291 291 291 290 289
291 291 291 291 292 292 292 292 292 293 293 293 293 292 293 294 294 294 294 294 294 294 295 296 296 296 296 296 296 295 295 295 295 295 295 294 294 294 295 295 295 295 294 295 296 296 297 297 297 297 297 297 298 298 297 298 298 298 298 299 299 299 299 299 300 300 300 299 299 299 300 301 301 302 302 301 301 300 299 299 299 301 298 296 294 293 293 293 293 292 292 292 291 291 290 290 290 289 290 290 290 290 289
292 292 292 292 292 292 292 292 292 292 292 292 292 292 292 293 293 293 293 293 294 294 294 295 295 295 295 295 295 294 294 294 294 295 294 294 294 293 294 294 294 294 294 294 295 296 296 296 296 297 297 298 299 299 298 299 299 299 299 299 299 299 299 299 299 299 299 298 298 298 298 299 299 300 300 300 299 298 297 297 297 298 295 294 293 293 293 293 293 293 293 293 292 292 291 291 290 290 289 290 290 290 289
293 293 294 293 293 291 292 293 293 292 292 292 292 293 293 293 293 292 293 293 294 294 294 294 295 295 295 295 295 294 294 294 294 295 295 294 294 294 293 294 294 294 294 295 295 296 296 296 296 297 298 299 299 300 299 299 300 300 300 300 299 298 298 298 298 298 297 297 297 297 297 297 297 298 298 298 297 296 296 295 294 294 293 293 293 293 293 293 293 293 293 293 293 292 292 292 291 291 291 291 291 291 290
294 294 294 294 293 292 293 293 292 292 292 292 293 293 294 294 294 294 294 294 294 294 294 294 295 296 296 295 295 295 294 294 295 295 294 294 293 293 293 294 294 294 295 295 296 296 296 296 296 298 299 299 300 300 300 300 300 300 300 299 299 298 298 297 296 296 296 296 296 296 296 296 296 296 296 296 296 295 295 294 293 293 293 293 293 293 293 293 294 293 293 293 293 292 292 292 292 291 292 292 291 291 290
294 294 293 293 293 293 293 293 292 292 292 293 293 294 294 295 295 295 295 294 294 294 294 295 296 297 297 296 295 295 295 295 295 295 294 294 294 294 295 295 295 295 296 295 295 295 296 296 297 298 299 299 300 300 300 300 299 299 299 299 299 299 298 297 296 295 295 294 294 293 293 294 294 295 295 295 295 295 295 294 294 293 293 294 294 294 294 294 294 293 293 293 293 292 292 292 291 291 292 292 292 290 290
294 294 293 293 293 293 293 292 292 292 293 294 294 295 296 296 296 296 295 295 294 294 294 295 296 297 297 297 296 295 295 295 295 294 294 295 296 296 296 296 296 296 296 296 296 296 297 297 298 298 299 299 299 300 300 299 299 299 298 298 299 298 297 296 294 293 293 292 292 291 292 293 294 294 294 294 295 295 295 295 295 294 294 294 294 294 294 293 293 293 293 293 293 293 292 292 291 292 293 293 292 291 291
294 294 294 294 294 294 293 292 293 293 295 296 297 298 297 297 296 295 295 295 295 295 295 295 295 297 297 297 296 296 296 296 294 294 295 296 297 297 297 297 296 296 296 296 297 298 297 298 298 299 299 299 299 299 299 298 298 297 297 296 296 296 295 294 293 292 291 292 292 292 292 293 294 294 294 294 295 295 295 295 295 295 294 295 294 294 294 294 293 293 294 294 294 293 293 293 293 293 293 293 292 292 292
294 294 294 294 294 294 294 294 295 296 297 298 298 297 297 296 296 296 295 295 296 296 295 296 296 298 298 298 297 296 296 296 295 295 296 297 297 297 297 297 297 297 297 297 298 298 298 298 298 299 298 298 297 297 297 296 295 294 294 293 293 293 293 292 292 293 292 293 293 293 293 294 294 294 294 294 294 295 295 294 295 295 294 294 294 294 294 294 294 293 294 294 294 294 293 293 294 294 293 293 293 293 293
295 295 295 294 294 295 295 296 297 298 298 297 296 296 295 295 296 295 296 296 296 296 296 297 298 298 298 298 297 296 296 295 295 296 297 297 297 297 297 297 297 297 297 297 297 297 296 297 297 297 295 294 294 294 293 293 292 292 291 291 292 292 293 293 293 293 293 293 293 293 294 294 294 294 294 293 293 294 294 294 294 294 294 294 294 293 293 293 294 294 294 294 294 294 294 293 293 293 293 292 292 292 292
297 297 296 297 297 297 298 298 298 298 297 296 296 295 295 295 296 296 296 297 297 297 297 298 298 298 298 297 297 296 295 295 296 297 297 297 297 297 296 296 296 297 296 295 295 294 294 294 295 295 294 293 292 292 291 290 290 291 291 292 292 292 293 293 294 294 293 293 293 293 294 294 294 293 294 293 293 294 294 293 293 293 293 293 293 293 293 293 294 294 294 294 293 293 293 293 293 293 293 292 292 291 291
297 297 298 298 299 299 299 299 298 297 297 296 296 296 296 296 296 296 297 297 298 297 298 298 298 298 297 297 296 296 295 296 296 297 297 296 296 295 295 295 295 295 294 293 293 293 294 294 295 294 292 290 289 289 289 290 290 291 292 292 293 293 293 293 294 294 293 293 293 294 294 294 294 294 294 294 294 293 293 293 293 294 293 293 293 294 294 294 294 294 293 293 293 293 293 292 292 293 292 292 291 290 290
296 297 298 299 299 299 298 298 298 297 297 297 297 297 297 297 297 297 297 298 298 298 298 298 297 297 297 297 297 297 296 296 296 297 296 296 295 294 294 294 293 292 292 291 291 292 292 292 291 291 289 288 288 289 289 290 291 292 292 293 293 292 293 293 293 293 293 293 294 294 293 294 294 294 294 294 294 294 294 294 294 294 294 294 294 294 294 294 294 293 293 293 293 293 292 292 292 293 292 292 291 291 290
297 298 298 299 298 298 298 297 297 297 298 298 298 298 298 298 298 298 298 298 299 298 297 297 297 296 296 296 297 297 297 296 296 296 296 295 294 293 293 292 291 290 290 289 289 289 289 289 288 288 287 288 289 290 291 291 292 292 292 293 293 293 293 293 293 293 293 294 293 293 293 294 294 294 293 293 294 293 293 294 294 294 294 294 294 294 294 294 293 293 293 293 293 292 292 292 292 293 292 291 291 290 290
298 298 298 298 298 297 297 297 297 298 298 298 298 299 299 299 299 299 298 298 298 297 297 297 296 297 297 296 296 296 296 296 295 294 294 294 293 291 291 290 289 289 289 288 287 287 287 287 287 287 288 288 289 290 291 291 292 292 292 293 293 293 292 292 292 293 293 293 293 293 293 294 294 294 294 294 294 293 293 293 293 293 293 293 293 293 293 293 293 293 293 293 293 292 292 292 292 292 291 290 289 289 289
298 298 298 297 297 297 297 297 297 298 298 297 297 298 299 299 299 299 298 298 298 298 297 296 296 296 297 296 296 296 295 295 295 294 293 292 291 290 289 288 288 287 287 287 286 286 286 287 287 288 288 289 290 291 290 290 291 291 292 292 292 292 292 292 292 293 293 293 293 293 293 293 293 293 294 294 293 293 293 293 293 293 293 293 293 293 293 293 293 292 292 292 292 292 292 292 291 290 289 289 288 288 289
297 297 297 297 297 297 297 297 297 298 298 298 298 298 298 298 298 298 298 298 298 297 296 295 295 295 295 295 295 294 294 294 293 292 292 292 290 289 288 288 287 286 286 286 286 287 287 287 288 288 289 290 291 291 290 290 290 290 291 291 291 292 292 292 292 293 293 293 293 293 293 293 293 293 293 293 293 293 293 293 293 293 293 293 293 293 293 293 293 292 292 292 291 291 291 290 289 288 288 287 287 287 288
296 296 296 296 296 297 297 297 297 297 298 298 298 298 298 298 298 298 298 298 298 297 296 296 295 294 294 294 294 293 293 293 293 292 292 291 290 288 288 287 286 286 286 286 287 287 288 288 289 289 290 290 290 290 290 290 290 290 290 291 291 292 292 292 292 293 293 293 293 293 292 293 293 292 292 293 293 293 293 293 293 293 293 293 293 293 293 292 292 292 291 291 290 290 290 289 288 287 287 286 286 286 286
295 295 296 296 296 296 297 297 297 298 298 299 299 298 298 298 298 298 298 298 298 297 296 295 294 294 293 293 293 292 292 292 292 291 291 289 288 287 286 286 286 286 286 286 287 288 288 288 289 289 289 289 290 290 289 289 290 290 291 291 292 292 292 292 293 293 293 293 293 292 292 293 293 292 292 293 293 293 293 293 293 293 293 292 292 292 292 292 291 291 290 289 288 288 288 287 287 286 286 285 285 285 285
295 295 296 296 296 297 297 298 298 298 299 300 300 299 299 299 298 298 298 298 297 296 296 295 294 293 292 292 292 292 292 291 291 290 289 287 286 285 285 285 285 285 285 286 286 287 287 288 288 289 289 290 290 290 289 290 290 290 291 291 292 293 293 293 293 293 293 293 293 293 293 293 293 293 293 293 293 293 293 293 293 293 292 292 292 292 292 291 290 289 288 287 287 286 286 285 285 284 284 284 283 283 283
295 296 296 296 297 298 298 299 299 300 300 300 299 299 299 299 299 299 298 297 296 295 295 294 293 292 292 292 292 292 292 291 290 289 288 286 285 285 285 285 285 285 285 285 286 287 287 287 288 288 289 289 289 289 289 290 290 291 291 292 292 293 293 292 293 293 293 293 293 293 293 293 293 293 293 293 293 293 293 293 292 292 292 292 291 291 289 288 287 286 286 285 285 285 284 284 284 283 283 283 282 282 282
296 296 297 297 298 299 299 299 300 299 299 299 298 298 298 298 298 297 296 295 295 294 294 292 291 291 291 291 291 291 291 289 288 287 286 286 285 285 284 284 284 284 284 285 285 285 286 287 287 288 288 289 289 289 289 290 290 291 292 292 292 293 292 292 293 293 293 293 293 294 294 294 294 294 293 293 293 292 292 292 291 291 290 289 288 287 286 285 285 284 284 284 283 283 283 283 283 283 282 282 281 281 281
297 297 298 298 299 299 298 298 298 298 298 298 298 298 298 297 297 296 295 295 294 293 292 291 290 290 290 290 290 290 289 288 287 285 285 285 285 284 284 284 284 283 283 284 284 285 286 286 287 288 288 288 289 289 289 290 290 291 292 292 292 292 292 292 292 293 293 293 293 294 293 293 293 293 293 292 292 291 290 290 289 288 287 286 286 285 285 284 284 284 283 283 283 283 283 283 282 282 282 282 281 281 281
298 299 299 299 298 298 298 297 297 298 298 298 298 298 297 296 296 295 295 294 293 292 291 290 289 289 289 290 290 289 288 287 286 285 285 285 284 284 284 283 283 283 283 283 284 284 285 286 287 287 288 288 288 288 289 289 290 290 290 291 291 292 292 292 292 293 293 293 293 294 293 293 293 292 291 290 289 288 287 287 286 285 285 285 284 284 284 284 284 284 284 284 284 284 283 283 283 283 282 282 282 282 281
298 298 298 298 297 297 297 298 298 299 299 298 297 296 295 295 295 295 294 294 293 292 290 289 288 289 289 289 289 288 287 286 285 285 285 285 284 284 283 283 283 283 283 283 284 284 285 286 286 286 287 287 287 287 287 287 288 288 288 289 290 291 291 292 292 292 292 293 293 293 292 291 290 289 288 287 286 286 285 285 284 284 284 285 285 285 285 285 285 285 285 285 285 285 284 284 283 283 283 282 282 282 282
297 297 297 297 297 297 298 299 299 299 298 297 296 295 294 294 294 294 294 293 292 291 289 288 288 288 288 288 288 287 285 284 284 285 284 284 284 284 283 283 283 283 283 283 283 284 285 285 285 286 286 286 286 286 286 286 286 286 287 288 289 290 291 291 291 292 292 291 290 289 288 287 287 286 285 285 284 284 284 284 284 285 285 285 285 285 285 285 285 285 285 285 285 285 284 284 283 283 283 283 283 283 283
296 297 297 297 298 298 299 299 299 298 297 296 295 294 294 294 294 294 293 292 291 289 288 288 287 287 287 287 287 286 284 284 284 285 284 283 283 283 283 283 283 283 283 283 283 284 284 284 285 285 285 285 285 285 285 285 285 286 288 289 290 290 291 291 291 290 289 287 286 285 285 284 284 284 284 284 284 284 285 285 285 286 286 286 286 286 286 286 286 285 285 285 284 284 284 283 283 283 283 283 283 283 283
297 297 298 299 299 299 299 298 297 297 296 295 294 294 294 294 294 294 293 291 290 288 288 287 287 287 287 287 286 285 284 283 283 284 283 283 283 283 283 283 283 283 283 283 283 283 283 284 284 284 284 284 284 284 284 285 286 288 289 290 290 290 290 289 289 287 285 284 284 284 283 284 284 284 284 285 285 285 285 286 286 286 286 286 286 286 286 285 285 285 285 284 284 283 283 283 283 283 283 283 283 283 283
298 299 300 300 299 299 298 297 297 296 295 295 294 294 294 294 294 294 293 291 289 288 288 287 287 286 286 285 285 284 283 282 283 283 283 282 282 283 283 283 282 282 282 282 283 283 283 283 283 284 283 283 283 283 284 286 287 289 289 290 289 289 288 287 286 285 284 284 283 284 284 284 284 285 285 285 286 286 286 286 286 286 286 286 285 285 285 285 285 284 284 284 283 283 283 283 282 282 282 282 282 283 283
300 300 300 299 298 298 297 296 296 295 295 294 294 294 294 294 294 293 292 291 289 288 288 288 287 286 285 284 283 283 282 282 282 283 282 282 282 282 282 282 282 282 282 282 283 283 283 284 284 284 283 283 284 284 286 287 288 288 288 288 288 287 286 285 285 285 284 284 284 284 284 285 285 285 286 286 286 286 286 286 286 286 285 285 285 284 284 284 284 284 283 283 283 282 282 282 282 282 282 282 282 282 282
300 299 299 298 297 296 296 296 295 295 295 294 294 294 295 295 294 293 292 291 289 288 288 287 286 285 283 283 283 282 282 282 283 283 283 283 282 282 282 282 282 282 283 284 284 284 284 284 284 284 284 285 285 286 287 287 288 288 288 288 287 287 286 285 285 285 285 285 285 285 285 286 286 286 286 286 286 286 286 285 285 285 284 284 284 283 283 283 283 282 282 282 282 281 281 281 281 281 281 280 280 281 281
299 297 297 296 296 295 295 295 295 295 295 295 294 294 295 295 295 293 292 290 289 288 287 286 285 283 282 282 282 282 282 282 283 283 283 283 282 282 283 283 283 283 285 285 286 286 286 286 286 286 286 287 287 287 288 288 288 289 289 288 288 287 287 286 286 286 286 286 286 285 285 285 285 285 286 285 285 285 285 284 284 283 283 283 283 282 282 282 281 281 281 281 280 280 280 280 280 280 280 280 279 279 279
296 295 295 295 295 295 295 295 295 295 295 295 295 295 295 295 294 292 291 290 289 288 287 286 284 283 283 282 282 282 282 283 283 283 283 282 283 283 283 284 285 285 286 288 288 288 288 288 288 288 288 288 289 289 289 289 290 290 290 289 289 288 288 287 286 286 286 285 285 285 285 285 285 285 285 285 285 284 284 283 283 283 282 282 282 282 282 282 282 282 281 280 280 279 279 279 279 279 279 278 278 278 278
294 294 294 294 295 295 295 295 295 295 295 295 295 296 295 295 293 291 290 289 288 288 287 286 285 284 283 283 282 282 283 284 284 283 283 283 283 284 285 286 287 288 288 289 290 290 290 289 289 289 289 289 290 290 291 291 291 290 290 289 289 288 287 286 286 285 285 285 285 285 285 286 286 286 285 285 284 284 283 282 282 282 282 282 282 282 285 286 287 285 284 282 280 279 279 279 279 278 278 278 278 278 278
294 294 294 294 295 295 295 295 295 296 296 296 296 296 295 294 292 290 289 288 288 287 287 286 285 284 284 283 282 282 284 284 284 284 284 284 285 285 286 287 289 289 290 290 290 290 290 290 290 290 290 290 290 291 291 291 291 290 289 288 288 287 286 285 285 285 285 285 285 286 286 286 286 285 285 284 283 283 282 282 282 281 281 281 282 284 286 287 287 288 287 285 282 280 279 278 278 278 277 277 277 276 276
294 294 294 294 295 295 295 295 296 296 297 297 296 295 294 292 290 289 288 287 287 287 286 286 285 284 284 283 282 282 284 285 285 284 284 285 285 286 288 289 290 290 290 290 290 290 290 290 290 291 291 291 291 291 291 291 290 289 288 287 286 285 285 285 285 285 286 286 287 287 287 286 285 285 284 283 282 282 281 281 281 280 280 281 282 284 286 286 287 287 287 287 284 281 279 278 277 276 276 276 275 275 275
294 295 295 295 295 295 296 296 296 296 297 297 296 294 292 290 289 288 288 287 287 287 287 286 286 286 285 284 282 282 283 284 284 284 284 284 285 286 288 288 289 289 289 289 290 290 290 291 290 291 291 290 290 290 290 289 288 287 287 286 285 285 285 285 286 287 288 288 288 287 286 285 284 283 283 282 282 281 281 280 280 279 279 280 282 284 285 286 286 287 287 287 286 283 279 277 276 276 275 275 275 274 274
295 295 295 295 295 296 296 296 297 297 297 296 294 292 290 289 289 288 287 287 288 288 288 287 287 287 285 284 283 283 284 283 283 283 283 283 284 286 287 287 287 288 288 288 289 290 290 290 290 290 289 289 288 288 287 287 287 286 285 285 285 285 286 287 288 289 289 288 287 286 285 284 283 282 282 282 281 280 279 278 278 278 277 279 281 284 285 285 286 286 286 287 287 286 280 277 275 275 275 275 275 275 275
296 297 297 297 297 297 297 297 297 297 296 294 293 291 290 289 289 288 288 288 288 289 288 288 288 288 286 285 285 285 283 282 282 282 282 283 285 286 287 287 287 287 287 287 288 289 289 288 288 287 286 286 285 285 285 285 285 285 285 285 286 287 288 289 289 289 288 286 286 285 284 283 282 282 281 280 279 278 278 277 277 277 277 278 280 283 284 285 285 286 286 287 287 287 282 278 276 275 275 275 276 277 277
298 298 298 298 298 297 298 298 297 296 295 293 292 291 290 289 288 288 289 289 290 289 289 289 288 286 286 286 285 285 283 282 282 283 284 285 285 285 285 285 285 285 285 285 285 286 286 285 284 283 283 284 284 284 284 284 284 285 286 287 288 289 289 289 288 287 286 285 283 282 282 281 281 280 279 278 277 276 276 276 276 276 276 277 279 283 283 284 285 285 286 286 286 286 283 279 277 276 275 276 276 278 277
298 298 298 298 298 298 298 297 296 294 292 291 290 290 289 288 288 288 289 289 289 289 288 287 286 286 286 285 284 284 283 283 283 285 285 285 284 284 283 282 282 283 283 283 283 283 283 282 282 282 283 283 284 284 284 285 286 287 288 289 289 289 288 287 286 285 283 282 281 280 279 278 278 278 277 276 276 275 275 275 275 275 275 276 279 282 283 284 285 285 286 286 286 285 283 280 277 276 276 276 276 277 277
298 298 298 298 299 299 297 295 293 291 290 289 288 287 287 287 287 288 288 288 287 287 286 286 286 285 285 284 283 283 283 283 284 284 284 284 283 283 282 281 281 282 282 282 282 282 282 282 282 283 284 285 286 287 288 288 289 289 289 289 289 288 286 285 284 283 281 280 279 278 277 277 276 276 275 275 275 275 274 274 274 275 274 276 279 282 283 284 285 285 285 285 285 285 282 279 277 276 276 277 277 277 277
299 299 299 299 299 298 296 294 292 290 288 287 287 287 287 288 288 288 287 287 287 287 287 286 285 284 283 282 282 282 284 285 285 285 285 284 284 283 282 282 282 281 282 282 282 282 283 284 285 286 287 288 289 289 289 289 289 289 289 288 287 285 283 282 281 279 279 278 277 277 276 276 275 275 274 274 274 273 273 273 273 274 273 276 280 282 283 284 284 284 284 284 284 284 281 278 276 275 276 276 277 277 277
Wind_Speed
4 3 2 2 1 1 3 5 6 6 5 4 4 5 6 6 6 5 5 5 5 3 3 2 2 3 2 2 3 3 3 2 1 1 2 2 2 1 1 1 1 1 1 2 3 3 4 4 4 4 4 4 4 4 5 6 7 6 6 6 6 6 6 6 6 6 6 6 5 5 5 5 5 5 6 5 5 4 4 4 4 5 5 5 5 5 5 5 4 4 3 3 3 3 3 2 1 0 1 0 0 1 1
4 3 2 2 2 2 4 5 7 7 6 5 4 3 5 6 6 5 5 5 5 4 5 5 5 4 3 3 3 3 3 2 2 1 2 2 1 1 1 1 1 2 3 4 4 3 4 4 4 4 4 4 4 5 6 7 7 7 7 7 7 6 7 7 6 6 6 6 6 6 6 6 5 5 5 6 5 5 5 5 5 5 5 5 6 7 7 6 6 5 4 3 3 2 2 2 3 2 1 1 1 1 1
4 4 4 4 3 3 4 5 7 9 7 5 3 2 4 6 7 6 6 5 5 5 6 7 6 5 3 3 4 4 4 3 3 2 2 3 3 3 3 3 3 3 4 4 4 4 4 4 4 4 4 4 5 6 6 7 8 8 8 7 7 7 8 8 7 6 7 7 6 7 6 6 5 5 5 5 6 6 6 6 5 5 5 5 6 6 6 6 6 5 4 3 3 2 1 1 2 3 2 2 1 1 2
4 4 4 4 3 3 4 5 7 9 9 7 5 4 5 6 7 7 6 5 4 4 7 7 6 4 4 4 4 5 5 4 3 2 2 3 3 3 4 4 4 4 4 4 4 4 4 4 5 5 5 5 5 5 6 7 8 9 8 8 8 9 9 9 8 8 8 8 7 7 7 6 6 6 6 6 6 6 7 6 6 5 6 5 5 5 6 6 6 5 5 4 3 3 2 1 1 2 3 2 2 2 2
4 4 4 3 3 2 3 5 6 7 8 8 8 6 6 5 5 5 5 5 5 5 7 6 5 4 4 5 5 5 5 4 4 2 3 3 3 3 4 4 4 4 4 4 4 4 3 3 4 4 4 4 4 4 5 6 7 8 9 9 9 9 10 9 9 9 9 9 8 7 7 7 7 7 7 7 7 6 6 6 6 6 5 5 4 4 5 5 5 5 5 5 5 4 3 2 1 0 1 1 1 1 2
3 2 2 2 2 1 2 3 4 4 4 4 5 6 4 4 3 4 5 5 6 7 6 5 4 4 4 5 5 5 5 5 5 4 5 5 4 3 3 4 4 4 3 3 2 2 2 1 1 2 1 1 1 2 3 5 6 8 9 9 9 10 10 9 9 10 10 10 9 8 8 8 8 8 7 7 7 6 6 6 6 6 5 5 5 4 5 5 5 4 4 4 4 4 4 4 3 1 0 1 1 1 1
1 2 1 1 1 1 1 2 3 1 1 2 3 4 3 3 4 5 6 6 7 7 6 5 5 4 4 5 5 5 5 6 7 6 6 5 3 2 1 1 0 0 1 0 0 1 1 1 2 2 2 1 1 2 3 5 6 6 7 7 9 10 10 10 10 10 11 11 10 8 9 10 10 10 8 7 6 6 6 6 6 6 5 5 5 5 6 6 5 5 4 4 4 4 4 4 4 3 1 1 1 1 1
1 0 1 1 1 2 3 3 2 1 1 2 4 5 5 5 6 7 6 6 7 8 7 7 6 6 6 6 6 6 5 6 7 7 5 3 1 0 1 1 2 2 2 2 1 0 1 1 1 1 2 2 2 3 4 5 5 4 5 6 9 10 11 11 11 11 12 12 11 10 10 11 11 11 9 8 7 7 7 7 6 6 5 5 5 6 7 7 6 6 6 6 5 5 4 4 5 4 3 2 2 1 1
2 1 2 3 3 3 3 2 2 1 2 3 4 5 6 7 8 8 7 7 7 7 6 5 5 6 6 6 6 5 5 6 7 6 4 3 2 1 1 1 1 2 2 2 2 2 1 1 1 1 3 4 4 4 4 5 5 5 6 7 9 11 12 12 12 12 12 13 13 12 11 11 11 11 10 9 9 8 7 7 7 6 5 5 5 5 6 6 6 6 6 6 7 6 5 4 4 4 4 3 2 1 1
3 3 4 4 3 2 2 2 2 2 3 4 5 6 6 7 7 7 6 5 5 5 4 4 4 4 4 4 4 5 6 6 7 6 4 3 3 3 2 2 1 2 2 2 2 3 3 3 2 3 4 4 4 3 4 4 5 6 6 8 9 11 12 13 13 13 13 13 13 13 11 11 11 11 11 11 10 8 7 7 7 6 6 6 6 5 5 5 5 5 5 5 6 5 5 5 4 3 4 4 3 2 1
2 2 3 2 2 2 2 3 3 4 4 5 5 6 5 4 3 3 3 3 3 3 3 4 4 4 4 4 4 5 5 6 6 5 4 3 3 3 3 3 3 3 3 3 3 4 4 3 4 4 4 4 5 4 5 5 5 5 6 6 7 10 11 12 13 13 13 13 13 13 12 11 11 12 12 11 11 10 8 7 7 6 6 6 5 5 5 5 5 5 5 5 5 5 4 4 3 3 3 4 4 3 2
2 3 3 2 2 3 4 5 5 6 5 6 7 6 3 2 1 2 2 2 3 3 3 3 4 4 5 5 5 5 5 5 4 4 3 3 3 4 4 4 5 5 5 5 4 4 4 4 4 4 4 4 4 5 5 4 4 4 5 6 6 7 10 11 12 11 13 13 13 13 13 13 12 12 12 12 11 11 9 8 7 6 6 6 5 5 5 5 5 5 5 5 5 4 3 3 3 3 3 3 4 3 2
3 4 4 4 4 5 6 7 7 7 7 8 7 4 1 1 2 2 2 3 3 4 4 4 4 4 4 5 4 4 4 4 3 3 3 4 4 4 4 4 5 6 5 5 5 5 5 5 5 5 4 4 4 4 4 4 4 5 5 5 5 5 8 10 11 10 12 13 13 14 14 14 13 12 12 12 12 11 10 8 7 6 6 6 5 6 6 5 4 4 3 3 4 4 3 3 3 3 3 3 3 3 2
4 5 5 5 6 7 8 7 7 7 7 6 4 1 1 2 3 3 4 4 5 5 4 4 4 3 4 4 4 5 4 3 2 2 4 4 4 4 4 5 5 6 6 5 5 5 5 6 6 5 5 4 4 4 4 4 5 6 5 5 5 5 6 8 10 11 11 12 13 14 14 15 14 13 12 12 12 10 9 8 7 6 6 6 5 5 5 4 4 4 3 3 3 2 3 2 2 2 2 2 3 3 2
4 5 5 5 5 6 5 5 5 4 4 4 3 2 2 3 4 5 5 5 5 4 3 3 3 3 3 4 4 4 3 2 1 1 2 2 3 3 3 3 4 4 4 5 5 5 5 6 6 6 5 5 5 5 4 5 5 6 6 6 6 6 5 6 8 10 11 12 13 13 14 15 15 14 12 12 12 10 8 8 7 6 6 5 4 4 4 4 5 5 5 4 3 2 3 3 2 2 2 2 2 2 2
3 3 3 3 3 4 4 4 5 5 4 4 4 3 3 3 3 3 3 3 3 2 2 2 2 3 4 4 3 3 4 4 4 3 3 3 3 3 3 3 3 3 4 5 5 5 5 5 5 5 5 5 5 5 5 5 6 7 7 6 6 6 6 5 6 8 10 11 13 13 14 15 15 15 13 12 11 10 9 9 8 7 6 5 4 4 5 5 6 6 6 6 4 3 3 3 3 3 2 2 2 3 2
3 3 3 3 4 4 4 4 5 5 4 4 3 2 2 3 3 3 3 3 3 2 3 3 3 4 3 3 4 5 6 5 5 3 3 2 2 2 2 3 3 4 4 5 6 6 6 5 5 5 5 5 5 5 5 5 7 8 7 7 6 6 6 6 6 6 8 10 11 12 13 13 14 14 13 11 10 9 9 9 8 7 5 5 5 7 7 7 6 6 6 5 5 4 4 4 4 3 2 2 2 2 2
4 5 4 4 4 4 3 3 3 4 4 3 3 2 2 2 3 2 3 3 3 2 2 3 3 3 4 5 5 5 4 3 2 1 1 0 1 1 0 2 3 4 5 6 7 7 7 6 6 5 5 5 6 5 5 6 7 7 7 7 7 6 6 6 6 6 6 7 8 10 10 10 11 11 10 8 7 8 7 6 5 6 5 5 6 7 6 6 5 5 5 4 4 3 3 4 4 4 2 2 2 2 2
5 5 5 4 3 2 2 2 3 4 4 4 3 3 2 2 2 2 2 2 3 3 4 4 4 5 5 4 4 3 3 2 1 0 0 0 1 1 1 2 3 4 5 6 7 8 8 7 7 6 7 7 6 6 6 7 7 7 7 7 6 6 5 6 6 6 5 5 5 7 8 8 8 8 7 6 5 5 4 3 3 5 5 5 5 5 4 4 4 4 4 3 3 3 3 4 4 4 3 3 2 2 2
5 5 5 5 4 3 3 3 4 4 4 4 4 3 3 2 2 3 5 5 6 5 5 5 5 5 4 4 4 4 3 2 1 1 1 1 1 0 1 2 3 4 5 6 6 6 7 7 6 7 7 8 8 7 8 8 8 8 7 7 6 5 5 5 5 5 4 3 3 4 5 5 5 5 4 4 4 5 4 3 3 4 5 4 4 4 5 5 5 5 5 4 4 4 4 4 4 5 5 5 4 3 3
5 5 5 5 5 4 4 4 3 4 3 3 3 3 3 4 5 7 7 6 5 4 4 4 4 4 4 4 4 4 4 3 2 2 2 2 2 2 2 2 3 4 5 5 5 5 6 6 6 7 7 7 7 7 7 7 7 7 7 6 6 6 6 5 4 4 3 2 1 1 2 3 4 4 4 4 5 4 4 4 4 4 5 5 6 6 7 8 7 7 6 6 5 5 5 5 5 5 5 5 4 4 3
3 3 3 3 3 3 2 2 2 3 3 3 3 4 5 7 8 7 6 5 4 4 4 5 5 5 4 4 4 4 3 3 3 3 3 3 2 3 3 3 4 4 5 5 5 5 6 6 6 6 7 7 7 6 6 6 6 6 6 6 6 7 6 5 4 3 1 1 1 2 2 2 3 3 4 4 5 5 5 4 5 5 6 7 8 8 9 10 9 7 6 5 4 5 4 4 4 4 3 3 4 4 3
2 2 2 2 2 2 2 2 3 3 3 4 5 6 8 8 7 6 6 5 5 5 5 6 6 5 4 4 4 4 3 3 3 4 4 4 4 4 4 4 4 5 5 5 5 5 6 6 6 5 6 7 7 6 6 6 6 6 6 6 6 6 5 4 3 2 2 3 3 4 5 5 5 5 6 6 7 7 7 7 7 7 9 10 10 10 9 9 8 6 5 4 4 4 3 3 3 3 3 3 3 3 3
2 2 3 3 3 4 4 4 4 5 6 7 8 8 8 8 8 8 7 7 7 7 7 6 6 5 4 4 4 4 4 4 5 5 6 6 5 5 5 5 5 5 5 5 4 5 6 6 6 5 6 6 7 6 6 6 5 5 4 4 4 4 3 2 2 3 4 4 4 5 6 7 7 8 9 9 9 9 10 10 10 10 10 10 10 9 8 7 7 6 5 4 3 3 3 3 3 2 2 2 3 3 3
4 4 4 5 5 6 6 5 5 7 8 10 10 10 10 9 9 8 8 7 7 7 6 6 5 5 5 5 4 4 5 5 5 5 6 6 6 6 6 6 6 5 5 4 4 5 5 5 5 5 5 5 5 6 6 5 4 4 3 3 3 2 2 3 4 4 5 5 5 7 8 9 10 11 11 11 11 11 11 11 11 11 10 9 8 7 7 7 6 6 4 4 3 3 3 2 2 2 2 2 2 2 2
5 5 5 5 5 5 4 6 9 11 12 11 10 10 9 8 7 6 6 6 6 5 4 3 3 4 4 4 5 5 5 5 5 5 5 5 5 5 6 6 6 6 5 5 5 4 4 4 4 5 4 4 4 4 4 4 3 3 3 3 3 4 4 4 5 5 5 6 7 9 10 11 11 11 12 12 12 12 11 11 10 9 9 8 8 7 6 6 5 5 4 3 3 2 2 1 1 1 2 2 2 3 3
5 5 5 4 4 5 8 10 12 12 10 9 8 7 7 6 5 4 4 4 4 3 2 2 2 3 3 4 4 4 4 5 5 5 4 4 5 4 5 5 5 5 6 5 5 4 4 4 4 4 4 3 3 2 2 2 2 2 3 4 5 5 5 5 5 6 6 7 8 9 10 10 10 11 12 12 11 11 10 9 8 8 7 7 7 6 5 5 4 4 3 2 2 1 1 1 2 2 2 2 3 4 4
6 6 6 7 9 10 11 11 10 9 7 7 6 6 6 4 3 2 3 3 2 2 2 3 3 3 3 3 3 4 4 4 4 4 4 4 4 5 5 5 5 5 5 5 4 4 4 4 4 3 3 3 3 3 2 3 3 3 4 5 5 5 6 6 6 5 5 6 8 9 9 9 10 10 10 10 9 8 8 8 7 7 7 7 6 5 5 4 3 3 2 1 1 1 2 2 2 2 2 3 4 5 5
8 8 9 10 10 10 9 8 8 7 6 6 6 5 4 3 2 1 1 1 1 2 3 4 4 4 4 4 5 5 4 4 4 4 5 5 5 5 5 5 4 4 4 4 4 4 4 4 3 3 3 3 3 3 3 4 5 5 5 5 5 6 6 6 5 5 5 6 7 9 9 9 9 8 9 8 8 7 7 7 7 7 7 6 5 4 4 3 2 1 1 1 1 1 2 2 2 3 3 4 4 5 5
8 8 9 9 8 7 7 7 6 6 6 5 5 4 3 3 2 2 2 2 1 1 1 3 4 4 4 5 5 5 5 5 5 5 5 5 5 4 4 4 4 4 4 3 3 3 3 3 2 2 3 3 3 3 4 5 5 5 5 5 5 6 5 5 5 5 6 6 7 8 8 8 7 7 7 7 7 7 7 7 7 6 5 4 3 3 2 1 0 0 0 1 1 2 2 3 4 5 5 5 5 5 5
9 8 8 7 6 6 5 5 5 5 4 3 3 3 3 3 3 3 3 3 2 1 1 1 2 3 3 3 4 4 4 4 4 4 4 4 3 3 2 3 3 3 4 3 3 3 3 2 2 2 3 4 4 4 6 6 6 4 4 5 6 6 5 5 6 7 6 6 6 6 6 6 6 6 6 6 7 7 6 6 5 5 4 3 2 1 1 1 2 2 2 2 3 3 4 5 7 8 7 7 6 5 4
8 8 7 6 5 5 4 4 3 3 3 3 3 3 3 3 4 4 4 3 3 3 2 1 1 2 2 2 2 3 3 3 3 4 4 3 2 1 1 1 1 2 2 2 3 3 3 3 3 3 4 4 5 6 7 7 6 5 5 6 6 5 4 4 5 5 5 5 4 5 5 5 5 5 5 6 6 6 5 5 4 3 3 2 2 2 2 3 4 4 3 4 4 5 5 7 8 8 7 6 5 4 4
7 6 5 4 4 3 3 3 3 3 3 3 3 4 4 4 5 5 5 6 6 5 4 3 2 2 2 2 2 3 3 4 4 4 4 3 2 1 1 1 1 1 1 2 2 3 4 4 4 5 5 5 5 5 6 6 6 6 6 6 5 5 4 4 3 3 4 4 4 4 4 4 5 5 5 5 5 5 5 4 3 3 2 2 3 4 5 5 6 5 5 5 5 5 5 5 6 6 5 4 4 5 4
5 4 3 3 3 3 2 2 2 3 3 3 3 4 5 5 6 7 8 8 7 6 4 4 3 3 3 3 3 4 4 4 4 3 4 3 2 1 1 1 1 2 2 2 3 4 5 5 5 6 6 6 6 5 5 6 6 6 6 6 6 4 4 3 3 3 3 4 4 4 4 4 4 4 4 4 4 4 4 4 3 2 2 3 4 5 6 7 7 5 4 4 4 4 4 4 5 4 4 4 4 4 3
4 3 3 3 3 3 3 3 3 3 3 3 4 4 5 6 7 8 8 8 8 6 5 4 3 3 3 3 4 4 4 4 4 3 3 3 2 2 1 1 1 2 2 2 3 4 5 5 5 5 5 6 6 6 6 6 6 6 6 5 4 3 3 3 3 3 3 3 4 4 3 3 3 3 3 3 3 3 3 3 3 3 4 5 6 7 7 7 7 5 5 5 5 5 5 5 4 4 4 4 4 3 3
3 3 3 3 4 4 4 4 4 4 5 5 6 6 6 7 7 8 8 8 7 5 4 4 3 3 3 3 4 5 5 4 4 3 3 2 2 1 1 1 1 1 1 2 2 3 4 4 3 3 4 5 5 6 6 6 6 6 5 4 4 3 3 3 3 3 3 3 3 3 2 2 2 2 2 2 3 3 3 4 4 5 6 7 7 7 7 6 6 5 6 6 6 5 5 5 4 3 3 4 4 3 3
3 4 4 4 5 5 6 6 6 6 7 7 7 7 7 7 8 8 8 7 6 5 4 4 3 3 3 3 4 5 5 4 3 3 2 2 1 1 1 2 2 1 2 2 2 2 3 3 3 3 3 4 5 5 5 5 5 5 5 4 4 3 3 3 2 2 3 3 3 2 1 1 1 2 3 3 3 4 5 5 6 7 7 7 7 7 5 4 4 4 5 5 6 5 4 4 4 3 3 4 4 3 3
3 3 4 5 5 6 6 7 7 7 7 6 6 7 7 7 7 7 7 6 5 4 4 4 3 3 3 4 4 4 4 3 3 2 1 1 1 2 2 2 2 2 2 2 1 1 2 3 3 3 3 3 4 5 5 4 4 4 4 4 4 4 3 3 2 2 2 2 2 2 2 2 3 4 4 4 4 5 5 5 5 5 5 5 5 5 4 3 3 4 4 5 5 5 5 4 4 3 4 4 4 4 4
3 3 4 5 5 6 6 6 6 6 6 6 6 7 7 7 7 7 7 6 5 4 4 4 3 3 4 4 4 4 3 3 2 2 1 1 1 2 2 2 2 2 2 2 1 1 1 2 3 3 3 3 4 4 4 4 4 4 4 4 4 4 4 3 3 2 2 2 2 3 4 4 5 5 5 5 4 4 4 4 4 4 5 5 5 5 4 3 3 4 4 5 5 6 5 5 4 4 4 4 5 5 5
3 3 4 4 5 5 6 6 6 6 6 7 7 7 7 7 7 7 7 6 5 4 4 4 3 3 4 4 5 4 4 3 2 2 0 1 2 2 2 2 2 2 2 1 1 1 1 1 2 3 3 3 3 3 3 3 3 3 3 3 3 4 4 3 3 3 2 3 4 5 5 5 5 5 4 3 3 3 4 4 4 5 5 5 5 5 4 4 4 4 5 5 5 6 6 5 5 4 4 5 5 5 6
3 4 4 4 5 6 6 6 7 7 8 8 8 7 7 7 7 7 7 6 6 5 4 4 4 4 4 4 5 5 4 3 2 1 1 1 2 2 2 1 1 1 1 1 1 1 0 1 2 2 2 2 2 3 2 2 2 2 2 2 2 3 3 3 3 3 3 3 4 5 4 4 3 3 2 3 3 4 4 4 4 5 5 5 5 4 4 4 4 4 5 5 5 5 6 5 5 5 5 5 6 6 6
4 4 5 5 6 6 6 7 7 8 8 8 7 7 7 7 7 7 7 6 6 5 4 4 4 4 4 5 4 4 3 3 2 1 1 1 1 2 1 1 1 1 0 1 1 0 0 1 1 1 1 1 2 2 2 2 2 2 2 2 2 3 3 2 3 3 3 3 3 3 2 2 2 2 3 3 4 4 4 4 4 4 5 4 4 4 4 4 5 5 4 4 4 5 5 5 5 5 5 6 6 6 7
4 5 5 5 6 6 7 7 8 8 8 8 7 7 7 7 7 7 7 6 6 5 4 4 4 4 5 5 5 4 3 3 2 1 1 0 1 2 2 1 0 0 1 1 1 1 0 1 1 1 1 1 2 2 2 2 2 2 2 2 2 2 3 3 3 4 3 2 2 3 2 2 2 3 4 4 4 4 4 4 4 4 4 4 4 4 4 5 5 5 5 4 4 4 5 5 5 5 6 6 7 7 7
4 5 5 6 6 7 7 8 8 8 8 8 8 7 7 7 7 7 7 6 5 5 5 4 4 3 4 5 5 4 3 2 2 1 0 0 1 2 2 2 1 1 1 1 1 1 0 0 1 1 2 2 2 2 2 2 3 3 3 2 2 3 3 3 3 3 2 2 2 3 3 3 3 3 4 4 4 4 3 3 4 4 4 4 4 4 4 5 5 5 5 5 4 5 5 5 5 6 6 6 7 7 7
4 5 6 6 7 7 7 8 8 8 8 8 8 7 7 7 7 7 6 6 5 5 5 5 4 4 4 4 4 3 3 2 1 1 0 1 1 2 2 2 2 2 1 1 1 1 1 1 1 2 2 2 2 2 3 3 3 3 3 3 3 3 2 2 2 2 3 3 3 3 3 3 3 3 3 3 3 3 3 3 4 5 5 4 4 4 4 5 5 5 5 5 5 5 5 6 6 6 6 6 7 7 7
5 6 6 6 7 7 7 8 8 8 8 8 8 8 7 7 7 6 6 5 5 5 5 5 5 5 4 4 3 3 2 2 1 1 1 1 1 2 2 2 2 2 2 2 2 2 2 2 2 2 2 2 3 3 3 3 3 3 3 3 3 2 1 1 2 2 3 4 4 3 3 3 3 2 2 2 3 3 4 4 4 4 4 4 4 4 4 5 5 5 5 5 5 5 6 6 6 6 6 7 7 6 7
6 6 6 6 7 7 7 8 8 8 8 8 8 7 8 7 6 5 5 4 4 4 4 5 5 5 4 4 3 2 2 2 1 1 1 1 2 2 2 3 3 3 3 3 3 3 3 3 3 3 3 3 3 3 3 2 2 2 3 3 2 2 1 2 2 3 3 4 3 3 3 3 2 2 2 2 3 3 4 4 4 3 3 4 4 4 4 5 5 5 5 5 5 5 6 6 6 6 6 7 7 7 7
6 6 6 7 7 7 8 8 8 8 8 8 8 7 8 7 6 5 4 4 4 4 4 5 5 5 4 4 3 2 2 2 2 2 2 2 2 3 3 3 3 3 3 3 3 3 3 3 3 3 3 3 2 2 2 2 2 3 2 2 1 1 1 1 2 2 3 3 3 3 3 3 2 2 3 3 3 3 4 4 3 3 3 3 4 4 4 4 4 5 5 5 5 5 5 6 6 6 6 6 6 7 7
6 6 7 7 7 7 8 8 8 8 8 8 8 8 8 7 6 5 4 4 4 4 4 5 5 5 4 4 3 3 2 2 2 2 2 2 2 3 4 4 4 4 4 4 4 3 3 3 3 2 2 2 2 2 3 3 3 3 2 2 2 2 2 3 3 3 3 3 3 3 3 2 2 3 3 4 4 4 4 3 3 3 3 3 4 4 5 5 5 4 5 5 5 4 5 5 6 6 6 6 6 7 7
6 7 8 8 8 8 8 8 8 8 8 8 8 8 7 6 5 5 4 4 4 4 5 5 5 4 4 4 4 3 3 3 3 2 2 3 3 4 4 4 4 4 4 4 3 3 3 3 2 2 2 3 3 3 4 3 3 3 2 2 2 3 3 4 4 4 4 3 3 3 3 2 2 3 3 4 4 5 4 4 3 3 3 3 4 4 6 8 8 7 6 5 4 4 4 5 5 5 5 5 5 6 6
8 8 9 9 9 9 9 8 8 9 9 9 8 8 7 6 5 4 4 4 4 4 5 6 5 5 5 4 3 3 3 3 3 3 3 4 4 4 3 3 3 3 2 2 2 2 2 2 2 3 3 4 4 4 3 3 3 2 2 2 2 3 3 4 4 4 4 3 3 3 3 3 3 3 3 3 4 4 5 4 4 4 4 4 4 5 8 9 10 10 9 7 5 4 4 4 4 4 4 4 4 5 5
8 9 9 9 9 9 9 9 9 9 9 9 8 8 7 6 5 5 4 4 4 5 6 6 6 6 5 4 3 3 3 3 3 3 3 3 3 2 1 1 1 2 1 1 1 1 2 2 3 3 3 3 3 3 3 3 2 2 1 1 2 3 3 3 4 4 3 3 3 2 3 4 4 4 3 3 3 3 4 4 4 4 4 4 5 7 9 10 11 11 11 10 8 5 3 3 3 3 3 3 4 4 4
9 9 9 9 9 9 9 9 9 9 9 9 9 8 6 5 5 5 5 5 5 6 6 6 6 6 5 4 3 2 2 3 3 3 2 2 1 2 1 1 1 1 1 1 1 2 2 3 3 3 3 3 4 3 3 3 2 2 2 2 2 3 3 3 3 4 3 3 2 2 3 4 4 4 3 3 3 3 3 4 4 4 4 5 6 8 10 11 11 12 12 11 9 5 3 2 2 2 3 3 3 4 4
9 10 10 10 9 9 9 9 9 9 10 9 9 7 6 5 5 5 5 5 6 7 7 6 6 6 5 3 2 2 2 2 1 1 1 1 1 2 1 1 1 2 2 2 2 2 3 3 3 3 4 4 4 3 3 2 2 2 2 2 2 3 3 3 4 4 3 2 2 3 3 3 3 3 3 2 2 3 3 4 4 5 5 6 8 10 11 11 12 12 11 10 9 7 3 1 1 2 2 3 4 4 5
10 10 10 9 9 9 9 9 9 10 9 9 8 7 5 5 4 4 4 5 7 7 7 7 6 6 4 3 2 2 1 1 0 0 1 1 1 1 1 2 2 2 2 2 2 2 3 3 3 4 4 4 3 3 2 2 2 2 2 3 3 3 4 4 4 3 2 2 3 3 3 3 3 3 2 2 2 3 4 4 5 5 5 6 7 10 11 11 11 11 10 9 8 7 4 2 2 2 3 3 4 5 6
10 10 9 9 8 8 8 9 9 9 8 7 6 6 5 4 3 3 5 6 7 7 7 6 5 4 3 3 2 1 1 0 0 1 2 1 1 2 2 3 4 4 4 4 3 3 3 4 4 4 4 4 3 3 2 2 2 3 3 3 3 4 4 4 4 2 2 2 3 2 2 2 2 3 3 3 3 4 4 5 5 6 6 6 8 10 10 10 10 10 9 8 8 8 6 4 3 3 4 4 5 6 7
10 10 9 8 8 8 7 7 7 7 6 6 6 6 5 4 3 4 6 7 7 6 6 5 5 4 3 3 2 1 1 1 1 1 2 4 5 6 6 6 6 6 6 5 5 5 5 5 5 5 4 4 3 3 3 3 3 3 4 4 4 4 4 4 3 2 2 2 2 2 2 2 2 3 3 3 4 4 4 5 5 6 6 6 7 9 10 10 9 9 9 9 9 10 7 5 4 4 5 5 6 7 8
9 9 9 9 9 9 8 7 6 6 6 5 5 5 4 4 4 5 6 6 6 5 5 5 5 4 3 3 3 3 4 4 4 5 5 6 7 7 6 5 5 5 5 5 5 5 5 5 5 5 4 4 4 3 4 4 4 5 5 5 5 4 3 2 2 2 2 2 2 2 2 3 3 3 4 4 4 4 4 4 4 5 5 6 7 9 9 9 9 9 9 10 11 12 8 6 5 5 5 5 6 7 8
9 9 9 9 10 9 9 8 6 5 4 4 4 4 4 5 6 6 5 5 5 5 4 4 4 4 4 5 6 6 6 6 6 6 6 7 7 6 5 5 5 5 5 5 5 5 5 5 5 5 5 5 6 6 6 6 6 6 6 6 5 3 2 2 1 1 1 1 1 1 2 3 3 4 4 4 4 4 3 4 4 4 4 5 7 9 8 8 9 9 10 12 12 12 8 6 5 5 5 6 7 7 8
Wind_Direction
298 293 290 285 247 158 138 130 125 123 122 124 128 133 136 138 142 150 156 159 161 168 168 174 190 211 193 162 141 133 122 111 97 94 90 79 65 52 52 53 32 355 265 251 245 237 234 233 233 233 231 227 222 216 221 221 218 214 211 208 206 207 202 196 192 190 186 184 184 189 188 189 191 198 200 200 196 190 188 186 180 171 173 180 189 198 197 194 189 181 170 173 181 187 173 168 168 222 292 291 184 158 168
321 340 5 28 61 99 118 121 119 117 111 109 113 129 138 142 148 162 169 172 173 172 167 178 196 214 192 167 155 150 146 143 144 148 143 141 144 149 130 142 181 211 223 229 232 229 226 227 231 238 239 233 226 224 225 222 218 215 213 211 209 209 205 201 197 196 189 186 187 194 194 194 196 200 201 199 197 195 194 192 187 180 182 189 196 200 194 191 189 181 168 161 160 162 164 160 159 170 250 276 262 185 189
360 19 37 51 66 88 113 122 124 123 118 118 128 154 150 153 161 174 182 186 183 172 171 183 197 205 182 172 174 174 168 166 167 167 164 166 171 174 170 176 190 203 210 216 222 223 220 222 231 243 242 235 229 228 228 223 219 216 215 214 213 211 207 204 203 202 194 192 193 197 194 194 197 202 202 202 201 202 198 196 194 191 192 195 197 197 191 187 184 174 164 151 140 130 137 149 154 159 197 223 226 197 190
16 31 43 55 72 98 122 133 138 138 138 146 163 179 171 171 175 181 185 187 187 182 186 191 197 194 180 181 189 195 189 179 168 159 173 186 190 184 172 176 187 199 199 206 214 215 207 205 211 224 226 224 222 223 226 224 221 218 217 217 216 213 209 208 208 207 200 198 198 200 197 196 196 199 202 204 206 207 200 197 197 198 198 197 195 191 190 187 181 171 169 165 155 142 142 145 150 151 181 202 211 190 189
21 34 45 55 71 102 135 148 153 153 152 157 165 175 181 183 182 178 182 187 192 195 200 200 197 190 186 189 195 204 201 189 174 168 193 206 207 197 179 180 189 203 198 204 216 222 213 212 218 227 229 227 224 221 225 227 225 222 221 220 219 215 212 212 213 211 206 202 201 202 203 202 200 198 200 205 209 209 203 201 200 198 197 196 195 190 188 188 187 180 177 177 174 162 158 155 149 128 187 210 222 199 195
21 27 41 50 59 85 145 160 164 165 159 157 160 171 181 183 180 177 187 193 198 200 205 207 203 197 197 198 201 207 205 198 191 194 206 209 208 202 196 195 199 210 205 207 220 246 263 296 319 310 310 306 271 236 234 236 236 231 227 225 224 221 216 216 217 216 211 207 205 206 207 206 204 200 202 205 208 208 206 207 205 198 194 195 197 198 194 195 195 191 186 183 182 176 162 153 146 144 298 304 287 264 215
359 17 37 48 59 81 166 178 181 181 153 155 166 178 185 189 189 190 194 197 200 203 206 207 206 202 204 206 210 213 211 205 204 210 214 213 205 192 198 213 234 300 49 72 222 259 316 347 347 324 324 315 271 239 233 237 239 236 231 231 230 227 223 222 221 220 215 211 209 211 210 209 207 204 205 205 205 205 207 209 208 202 197 195 196 198 198 198 198 193 191 189 187 186 169 155 146 152 181 229 252 278 255
294 10 79 115 161 189 197 203 215 280 199 188 189 191 193 196 198 199 198 198 199 204 206 206 204 203 205 209 213 217 216 212 213 220 224 224 220 356 356 359 11 25 34 41 49 75 307 305 304 305 298 275 247 229 230 235 240 242 237 235 233 229 227 226 226 224 219 215 213 213 213 212 210 207 207 206 204 205 205 206 207 205 203 199 199 199 200 201 199 193 192 188 182 176 171 160 153 158 177 193 203 212 259
209 183 169 181 198 211 218 231 256 292 232 213 207 204 201 200 199 200 199 198 199 204 205 204 204 205 208 211 216 221 221 219 219 222 224 223 228 262 278 303 340 351 350 346 338 328 317 305 292 284 277 268 254 234 233 237 241 241 236 232 228 225 225 226 227 227 223 219 216 215 215 214 213 211 210 207 205 205 204 203 204 203 203 203 203 203 205 203 199 193 188 182 177 171 170 169 167 159 164 172 178 171 241
203 198 190 195 209 233 249 260 259 245 234 227 222 220 215 208 203 202 200 199 200 206 205 206 209 214 218 220 223 226 228 225 223 219 215 211 212 224 235 246 265 281 290 289 285 280 272 265 254 246 249 251 250 240 235 234 235 233 233 230 227 223 223 225 228 229 227 223 220 218 217 216 215 214 212 209 206 203 203 203 202 200 201 204 206 206 203 199 194 191 187 185 182 174 166 168 170 158 148 147 148 136 148
227 221 211 211 222 241 247 244 236 228 228 229 229 227 226 220 213 211 208 206 207 211 207 207 209 215 221 226 228 229 230 229 225 215 208 210 216 221 223 226 228 229 236 239 240 242 247 244 237 232 231 234 237 241 236 234 234 233 234 233 229 223 222 224 227 231 230 227 223 221 220 219 217 215 213 210 207 204 204 203 202 201 202 203 204 203 197 192 190 191 189 189 185 171 153 151 156 160 135 125 125 133 155
254 227 222 213 208 221 230 230 227 224 222 226 230 232 233 234 234 230 225 223 222 221 214 211 210 213 218 224 229 230 231 231 224 204 197 207 222 230 225 225 227 229 231 233 236 238 244 245 240 234 234 232 233 240 242 244 244 243 241 238 233 226 222 222 224 231 231 230 227 223 222 221 220 217 214 211 208 207 205 203 201 200 200 200 200 199 196 193 191 188 186 180 170 154 144 141 145 150 132 118 117 137 162
228 217 215 207 203 209 221 224 225 223 221 224 230 240 243 245 239 236 225 225 226 226 221 220 219 220 223 228 234 236 233 229 217 192 191 203 219 231 229 231 235 239 241 242 243 244 248 253 255 252 251 249 248 250 257 262 262 257 251 247 242 234 224 221 222 229 231 230 228 226 224 223 221 220 216 212 209 207 205 202 200 198 194 195 196 197 196 191 182 167 157 146 142 140 132 125 123 133 128 122 122 136 157
221 220 218 214 210 212 220 226 229 228 228 231 237 277 263 239 235 233 223 221 223 225 223 224 228 234 237 241 244 245 239 230 215 199 196 205 219 230 231 235 241 247 251 253 252 251 254 260 265 268 268 270 271 270 270 271 270 266 262 258 253 246 231 223 222 226 229 229 228 227 225 224 223 222 218 214 210 207 204 201 197 193 190 191 192 191 184 173 156 137 120 109 106 104 96 90 90 101 112 116 120 131 139
221 223 226 228 229 229 238 248 255 258 259 262 265 264 243 236 233 231 227 226 228 231 235 241 249 259 256 254 254 261 268 274 274 259 227 234 247 256 252 252 256 260 264 266 265 262 264 268 273 279 283 286 286 282 278 274 272 270 267 263 260 255 245 232 225 224 227 228 227 226 225 224 224 223 221 216 211 206 201 197 193 188 186 183 180 172 156 142 133 126 122 117 107 89 83 84 87 84 83 96 107 117 121
248 249 257 269 279 286 284 284 287 296 295 285 272 261 252 253 256 257 255 256 259 265 268 272 272 268 263 267 282 313 344 358 3 355 350 337 325 318 312 304 298 292 284 281 279 278 278 279 280 284 289 288 286 282 280 276 273 271 270 267 264 262 256 246 235 227 227 227 228 228 226 225 225 225 223 217 210 204 199 194 189 182 176 168 154 137 123 116 114 114 117 119 117 109 103 103 103 95 84 89 100 106 114
309 308 302 297 292 286 279 281 286 293 293 292 292 303 302 304 307 313 301 293 289 284 277 272 268 268 286 321 353 4 9 12 14 9 4 2 360 353 333 311 299 292 285 283 284 287 285 285 285 287 287 284 282 280 278 276 275 273 272 271 268 265 260 254 247 237 231 229 229 230 228 227 227 228 226 220 211 204 198 193 186 173 160 144 130 121 113 106 102 100 102 105 107 108 110 112 111 105 99 97 99 106 123
313 300 283 270 264 263 268 279 289 297 310 323 337 348 339 327 318 313 299 296 296 295 292 292 300 321 354 7 11 11 8 8 13 23 6 29 94 106 234 266 270 273 272 273 276 280 282 284 286 290 288 285 284 283 282 280 279 277 276 274 270 266 261 257 253 247 238 231 228 229 230 229 228 229 229 224 213 203 197 189 173 151 132 119 113 111 106 102 97 94 93 91 91 94 100 100 97 95 95 90 90 99 117
312 300 292 285 280 286 319 332 331 334 339 341 345 356 355 334 313 308 320 337 349 356 357 358 2 10 11 6 359 355 349 344 352 61 86 109 110 122 202 239 253 260 261 264 267 273 277 282 286 290 290 289 289 290 290 289 287 286 284 279 274 270 265 259 256 252 245 236 228 225 226 226 225 225 225 216 201 185 176 157 131 115 104 101 99 96 92 88 86 83 80 74 67 63 68 68 63 54 49 43 41 48 62
319 320 327 333 341 357 9 5 354 347 344 340 339 346 337 326 332 357 13 19 20 20 24 25 24 19 6 356 351 346 337 334 342 23 32 37 33 358 251 246 250 256 260 262 265 270 277 282 285 287 289 291 292 294 294 293 293 292 290 287 283 278 270 264 260 257 250 241 229 220 217 212 209 207 197 178 159 146 131 110 92 85 84 83 82 78 74 70 66 61 55 48 41 35 36 35 31 27 22 19 17 15 16
326 333 339 341 345 354 3 357 346 338 332 327 323 320 323 348 10 21 25 26 26 28 39 47 45 31 9 357 350 344 336 335 349 15 20 19 7 332 289 270 263 264 267 270 272 276 280 283 285 288 290 291 293 294 293 292 292 292 292 293 291 285 277 272 268 264 256 241 221 207 192 183 177 166 148 132 120 110 95 79 68 66 68 68 67 65 61 58 56 52 49 44 39 33 31 27 20 15 13 11 10 7 6
324 327 329 330 329 335 332 321 309 307 303 306 316 334 360 14 22 26 26 28 30 29 40 50 52 39 14 358 349 341 330 337 356 11 10 4 352 331 311 297 288 285 284 284 286 287 287 287 288 290 292 292 291 291 289 288 287 288 291 293 291 287 284 282 280 276 293 35 50 42 64 84 97 101 99 92 84 76 70 64 58 56 58 60 60 58 56 56 56 58 56 54 50 43 39 32 23 15 11 8 7 5 2
319 321 320 313 304 295 286 285 293 306 324 344 359 12 21 27 31 32 31 32 33 31 33 40 43 34 11 353 341 330 328 343 359 4 0 354 345 333 321 314 307 302 298 297 297 298 295 294 294 294 294 294 293 291 288 286 285 286 290 290 289 288 289 291 297 326 33 42 40 35 47 53 58 60 66 68 68 65 63 62 60 57 57 58 59 58 59 59 60 64 64 62 57 51 45 34 22 15 10 4 1 360 351
339 335 330 325 323 323 327 336 347 357 6 17 26 32 35 39 40 37 35 34 33 31 29 31 30 21 359 344 333 328 341 352 359 1 356 349 341 331 324 319 313 307 302 301 302 303 301 301 300 299 297 297 297 296 293 291 291 293 295 295 295 295 302 321 2 36 46 47 45 44 52 56 59 60 62 64 67 66 63 61 60 58 58 59 60 61 62 61 61 60 60 58 54 48 41 30 18 8 358 351 349 347 334
345 338 339 341 343 343 349 3 21 35 40 42 42 42 42 42 40 36 34 34 33 29 25 23 19 9 353 342 337 341 350 354 357 358 351 344 335 328 323 318 314 310 308 308 307 307 305 304 303 300 298 297 297 297 295 297 305 317 324 328 332 338 11 34 43 49 54 55 55 54 59 62 63 63 63 63 64 65 63 61 59 59 60 61 61 61 59 58 56 54 53 51 48 41 32 20 4 343 334 332 332 326 311
352 349 349 349 349 346 14 41 51 53 51 50 48 46 45 44 41 33 34 35 33 26 20 15 11 4 350 343 342 348 350 352 352 352 344 336 328 322 319 317 316 316 316 316 314 311 306 302 300 299 299 296 291 284 288 300 320 346 2 10 15 26 44 52 55 55 58 60 61 60 63 64 65 64 63 62 62 64 65 65 65 65 65 64 63 61 58 56 53 50 49 46 42 36 16 353 330 317 318 318 313 303 289
11 10 10 14 24 38 50 54 55 55 55 54 51 49 48 47 42 33 35 34 28 12 360 358 360 358 347 341 341 346 349 348 346 340 333 326 320 316 316 317 318 319 319 317 315 312 309 306 305 306 309 306 299 289 297 316 344 14 36 42 43 44 53 60 63 63 60 62 64 64 65 65 66 66 66 66 67 68 71 73 74 73 70 68 66 64 61 58 54 50 49 44 32 5 338 327 322 317 314 305 292 279 272
36 41 45 51 53 53 55 56 56 56 55 53 50 49 48 45 39 30 32 27 13 348 348 353 355 351 343 338 339 345 347 344 338 331 326 322 320 321 320 318 318 321 322 324 325 324 325 326 326 324 323 321 321 324 346 9 25 35 48 54 55 56 58 62 66 68 65 64 65 66 66 67 69 73 75 77 78 79 79 78 77 74 70 68 66 64 61 58 55 50 49 38 2 335 331 327 318 302 286 275 268 261 259
55 58 57 57 56 54 54 54 53 51 48 45 42 40 38 31 15 353 357 352 345 339 356 1 358 348 340 337 340 344 345 341 337 333 329 327 327 327 320 319 321 330 332 333 331 331 331 329 327 325 332 337 343 354 18 32 39 41 52 59 62 61 60 60 63 68 69 67 66 69 72 75 80 85 88 89 88 87 83 79 75 73 71 69 67 66 65 60 55 45 36 359 324 314 307 298 287 275 262 256 252 249 246
57 59 58 56 54 51 48 46 44 43 41 37 31 25 16 1 338 307 287 271 264 278 13 11 357 339 335 336 339 339 340 339 336 331 327 325 324 320 315 317 325 334 336 336 333 329 326 322 320 332 356 5 12 24 37 43 44 44 54 61 64 62 60 61 64 67 70 71 74 79 84 87 90 93 94 95 94 90 85 81 79 78 79 80 82 81 80 80 77 258 251 258 258 256 255 253 251 249 246 244 242 240 237
55 55 53 50 47 43 41 38 35 32 30 25 16 5 353 336 316 297 280 268 263 306 26 18 342 319 320 324 326 328 329 329 325 319 315 313 311 305 302 312 323 332 333 334 335 336 336 337 348 18 35 39 43 48 52 53 52 50 55 62 68 71 71 70 69 70 74 78 84 91 94 96 97 96 96 96 95 93 90 89 89 91 96 102 108 119 150 188 208 213 218 224 228 229 231 233 234 234 234 235 236 238 235
52 50 47 44 41 37 32 27 19 10 6 357 346 335 327 317 305 294 290 301 325 351 347 319 280 277 283 288 297 306 310 313 313 310 309 309 307 294 284 295 313 324 331 343 356 7 14 23 33 43 52 54 56 60 63 66 68 67 69 72 75 79 75 72 71 75 84 91 97 99 100 100 99 97 95 96 97 99 100 102 106 114 123 138 160 188 202 210 214 213 216 219 222 222 226 228 229 228 228 230 234 241 243
48 46 41 37 32 28 21 13 4 355 350 343 337 330 325 319 312 309 324 340 347 345 333 318 299 285 281 285 296 308 314 316 317 317 318 319 319 311 303 309 320 329 343 10 31 39 42 45 51 57 63 67 69 72 76 80 82 81 80 79 76 74 72 74 79 86 94 99 102 103 103 101 100 99 99 102 106 110 116 122 131 142 156 180 202 212 215 216 216 215 217 221 224 225 229 230 229 225 222 225 233 243 249
39 34 26 16 8 2 357 351 344 336 335 335 336 334 329 326 327 334 343 344 340 330 326 321 317 312 312 317 324 330 328 325 323 325 325 325 328 347 346 343 345 360 9 31 48 56 55 57 61 68 77 84 88 89 88 89 88 86 82 79 77 77 81 86 90 94 96 97 98 98 99 100 102 106 111 115 121 126 133 139 147 159 190 212 221 223 223 223 223 224 227 231 234 236 239 239 236 227 223 228 236 243 250
21 8 2 355 346 338 331 323 316 312 323 334 340 338 333 334 338 342 340 334 326 321 321 319 317 316 323 329 334 335 330 327 327 331 330 334 343 7 8 9 17 30 32 44 61 70 69 68 70 78 87 93 95 93 91 89 87 85 84 85 88 96 96 95 95 101 100 97 94 93 96 101 108 117 125 133 140 145 145 152 166 192 211 220 224 226 226 227 228 232 237 241 243 243 244 245 245 239 235 237 241 247 252
3 349 347 344 339 333 327 322 321 326 341 347 348 344 340 340 339 337 330 325 321 319 317 311 304 301 315 327 334 334 331 332 334 336 336 341 355 15 32 49 60 65 59 64 78 90 90 87 84 88 90 91 93 94 92 91 90 91 94 99 105 108 103 103 106 114 108 103 100 97 102 112 128 144 154 160 166 168 172 183 197 209 215 220 224 227 227 227 228 232 238 243 247 249 248 249 250 247 242 242 245 250 251
357 348 347 344 341 337 336 336 340 346 351 351 348 342 338 337 335 332 326 322 317 313 308 301 298 301 319 332 336 335 334 334 332 325 324 334 357 30 51 59 63 70 70 71 82 100 108 107 102 96 92 92 95 99 98 98 100 104 111 116 117 115 116 122 131 131 120 116 115 122 141 167 186 193 192 192 193 194 198 205 211 217 221 226 231 236 237 237 236 237 242 248 253 257 257 254 251 247 243 243 246 250 248
354 350 347 344 341 337 337 339 342 345 346 342 336 332 332 333 332 328 322 315 309 302 299 297 299 311 327 334 334 332 329 323 313 298 297 334 29 44 51 50 47 41 57 62 65 73 108 113 111 103 101 102 104 106 108 110 113 119 126 129 129 130 135 143 151 150 135 134 144 168 187 203 210 214 210 209 209 210 214 219 225 233 238 244 248 253 255 252 248 245 246 250 255 260 261 258 250 242 237 238 242 246 246
342 343 341 336 331 327 329 332 334 334 332 330 330 332 332 330 325 318 313 308 302 295 294 295 300 316 329 330 327 324 321 313 302 290 289 66 65 56 52 49 43 31 41 40 23 338 76 108 111 110 113 116 118 119 121 124 128 135 141 143 144 147 151 155 159 160 159 171 187 201 208 214 217 220 219 219 222 228 233 240 246 252 255 257 259 260 259 253 247 248 249 250 253 258 259 257 249 236 231 232 235 240 246
332 333 328 323 322 323 328 330 331 330 331 332 333 333 328 321 315 312 310 307 301 292 290 294 304 322 326 323 320 318 317 311 305 302 358 72 76 70 53 49 48 41 33 17 346 325 16 97 110 117 126 129 129 130 134 136 139 146 156 159 159 158 159 160 162 168 187 205 214 218 221 223 224 228 230 235 243 253 257 257 256 257 258 258 258 259 258 253 248 249 249 249 250 252 254 252 247 237 233 232 236 241 248
326 322 321 323 326 330 331 332 332 333 333 331 327 321 314 310 309 310 309 306 301 292 290 298 311 322 318 314 311 311 310 307 306 317 27 68 82 85 65 48 43 57 32 353 330 327 52 101 113 125 132 132 132 136 140 142 146 158 174 178 171 164 164 165 172 185 203 217 226 231 235 240 247 257 260 260 259 259 259 256 254 252 254 255 256 259 262 260 255 250 247 246 246 247 249 250 248 244 242 243 246 249 253
323 326 329 330 331 330 330 331 331 330 325 320 314 307 304 304 305 306 305 302 297 292 294 301 309 311 306 303 302 302 304 306 312 338 33 61 83 94 97 75 27 68 356 306 305 311 116 123 123 126 125 128 131 139 146 154 165 179 192 191 182 172 172 181 198 210 219 230 245 257 265 269 269 267 258 249 244 243 245 247 249 250 253 257 260 264 268 269 267 262 255 250 246 246 249 251 252 252 254 256 257 259 260
329 334 333 330 329 328 329 328 325 319 312 306 301 298 299 300 301 302 299 296 293 293 294 295 296 298 298 299 300 300 309 316 325 352 21 59 99 111 137 164 234 200 236 271 293 306 162 133 127 125 126 135 145 154 167 180 190 192 192 193 194 192 194 204 217 230 241 254 265 269 266 251 233 231 233 232 231 232 236 243 251 259 263 266 268 269 270 270 270 270 267 262 258 254 254 256 257 258 261 262 263 264 264
328 331 330 329 328 327 323 318 312 306 300 295 292 292 293 295 296 297 295 294 294 296 296 292 288 285 290 294 297 300 312 321 329 334 319 239 145 141 164 189 219 219 235 262 289 293 267 166 146 141 148 156 166 176 186 197 202 200 193 197 207 217 214 216 224 242 259 262 254 247 243 232 217 213 222 228 233 236 243 253 263 269 272 273 272 270 268 267 268 269 269 269 267 265 265 265 264 263 264 265 265 266 266
326 333 332 329 323 317 311 306 301 297 293 291 290 289 288 288 288 289 290 292 295 300 300 297 291 283 284 287 290 295 305 311 310 291 231 198 184 159 171 193 221 231 238 241 243 235 217 192 172 165 165 173 183 195 200 203 205 204 200 206 219 232 232 226 228 244 255 255 249 240 238 234 228 216 222 235 247 256 265 270 272 273 275 275 273 271 268 267 267 268 268 268 268 267 268 269 269 268 268 267 266 267 267
332 335 327 318 311 307 304 301 298 295 294 292 290 288 285 282 279 277 279 283 289 296 297 295 292 289 290 289 288 289 294 295 288 261 211 192 183 165 175 194 218 233 230 222 216 208 198 187 179 174 177 185 196 208 208 205 203 205 210 217 225 234 235 230 230 237 243 246 248 247 247 248 247 236 239 253 266 276 277 276 274 274 276 278 277 275 271 270 269 268 268 267 267 267 267 267 268 269 270 270 269 270 269
329 324 315 309 305 303 300 298 296 295 293 292 290 288 285 282 276 270 268 270 273 276 280 283 285 288 293 292 288 281 282 278 267 246 214 192 182 177 188 202 215 223 220 214 206 197 190 184 181 181 188 195 203 209 207 205 206 213 217 219 218 212 204 211 220 229 235 240 246 250 255 260 267 271 275 278 280 283 282 281 280 281 283 283 282 279 276 274 273 273 270 268 266 266 267 267 267 268 270 272 273 273 273
318 313 306 302 299 296 295 294 293 292 290 289 288 286 285 284 281 275 273 272 272 271 270 273 277 283 286 281 272 264 262 256 247 236 217 200 192 189 197 206 213 214 209 203 198 194 188 185 184 188 191 194 198 206 211 217 222 228 230 231 228 223 233 244 251 253 253 254 254 253 255 263 276 292 298 298 295 291 289 290 292 295 290 284 279 276 274 273 273 275 273 270 267 266 267 267 268 268 270 272 274 275 276
306 300 294 291 289 288 289 289 289 288 287 287 286 285 286 287 287 286 288 292 296 296 290 284 282 284 279 267 255 248 243 237 232 227 216 208 204 205 208 209 210 206 201 198 195 190 183 179 179 180 183 191 202 214 222 228 235 245 260 279 298 307 309 307 304 298 289 277 266 257 252 256 273 296 304 306 305 302 298 298 298 300 289 279 274 272 271 270 270 271 273 273 271 268 267 268 268 269 269 270 272 275 278
293 288 284 282 281 282 283 284 285 287 287 287 288 290 293 294 292 290 292 295 299 300 295 291 287 286 277 264 250 238 233 228 224 219 213 212 213 217 217 214 210 208 207 202 194 179 170 167 171 178 192 206 219 227 230 235 242 254 270 291 306 312 311 309 305 299 290 279 268 260 261 270 288 304 306 306 305 305 303 302 301 298 289 281 276 275 278 279 279 278 279 278 275 273 272 272 272 271 269 269 270 272 275
285 283 281 280 279 279 280 282 285 288 290 292 296 299 301 298 291 285 285 286 287 286 284 283 282 281 274 263 247 227 228 229 227 219 220 220 220 220 220 219 220 224 224 211 188 167 164 173 189 204 216 226 235 244 249 251 254 258 270 289 300 301 299 296 292 286 280 272 268 274 294 308 314 314 308 303 299 298 301 302 301 297 290 286 283 283 284 286 287 287 287 285 281 276 274 275 276 275 271 268 268 269 270
282 281 281 280 281 282 284 287 290 294 298 302 305 307 304 296 286 279 282 285 286 282 278 277 276 274 268 258 243 225 229 234 236 229 228 230 234 239 241 248 259 270 265 234 197 192 199 213 223 230 240 250 260 268 270 267 264 266 279 292 293 290 287 286 282 275 269 267 275 300 316 317 315 310 306 298 291 287 290 293 294 293 289 286 284 286 288 290 291 292 293 292 290 281 272 266 266 270 271 270 268 268 268
282 283 284 285 286 289 292 295 299 303 307 309 310 310 303 293 284 278 282 287 288 283 278 275 273 270 264 256 244 229 237 240 241 240 241 254 279 316 331 326 312 297 275 243 233 240 245 249 254 263 272 276 277 276 271 268 268 276 286 288 286 283 283 283 280 273 270 277 296 315 312 307 302 299 297 293 289 285 281 281 282 283 283 283 284 288 292 294 296 297 298 298 297 293 278 254 246 256 266 268 268 267 267
288 288 289 290 292 294 297 300 304 308 310 311 310 307 296 285 277 277 282 285 284 280 278 275 271 266 264 262 259 249 254 254 250 244 271 290 309 325 319 296 269 251 240 236 239 249 261 273 282 287 281 276 272 269 268 270 277 288 289 286 284 283 283 281 279 277 284 299 310 307 300 297 294 290 289 290 293 293 287 282 278 277 278 281 286 291 296 299 301 303 303 303 304 309 297 254 232 250 264 270 271 271 270
292 292 294 295 296 297 300 303 307 310 310 308 304 297 285 272 267 275 280 279 278 279 278 276 272 271 276 278 275 264 269 288 305 256 264 267 272 276 266 263 263 267 270 269 266 268 280 289 293 290 284 281 280 281 286 294 299 302 295 289 285 284 280 274 272 276 291 299 297 290 292 294 293 290 291 294 295 292 288 286 283 282 282 285 291 297 302 305 307 309 311 311 313 319 311 290 265 265 270 274 277 278 277
294 296 298 300 300 300 301 304 306 306 302 296 288 280 270 261 254 266 273 273 274 276 278 280 283 294 297 290 278 270 260 228 227 252 269 287 315 340 339 339 341 345 347 344 337 327 318 313 310 309 309 310 312 317 318 315 308 300 293 289 285 281 274 270 272 287 299 295 288 285 290 292 292 296 300 297 290 285 283 283 284 285 285 288 294 301 307 311 314 316 318 319 320 320 313 301 285 278 276 276 278 280 279
297 300 302 303 303 301 302 303 302 298 291 282 274 268 266 261 257 260 269 273 276 279 286 294 302 306 301 297 294 294 301 319 345 348 351 4 13 16 9 3 358 357 358 357 354 347 336 328 323 321 320 319 318 319 315 308 300 293 289 285 279 273 273 279 291 311 310 306 304 311 311 305 300 301 298 292 285 279 280 283 286 288 287 290 297 306 312 316 320 321 323 322 320 317 311 302 290 283 280 278 278 278 277
303 305 307 306 305 303 304 304 301 295 287 280 274 273 281 283 278 269 274 281 289 296 304 310 314 317 326 337 349 360 5 13 21 23 24 25 24 19 10 3 0 2 4 4 0 352 339 329 323 319 315 314 313 315 313 310 304 299 292 285 279 278 289 300 307 307 306 306 307 311 313 309 303 295 289 284 280 277 278 283 289 292 291 295 303 312 317 321 323 324 323 321 318 315 311 303 294 287 284 283 282 281 278
308 310 312 310 307 303 303 301 298 290 282 277 278 283 292 293 290 285 287 294 304 313 323 330 339 352 5 10 13 16 22 27 30 33 39 40 37 26 17 12 11 12 14 12 8 358 346 339 335 334 333 332 332 331 328 323 316 308 301 297 298 310 329 339 334 317 299 290 285 287 292 293 291 288 284 282 280 280 284 291 296 297 294 300 307 315 319 322 323 323 321 319 317 315 311 304 296 291 288 286 285 282 279